Regional Weather Roundup
Issued by NWS Green Bay, WI

Home | Current Version | Previous Version | Graphics & Text | Print | Product List | Glossary Off
Versions: 1 2 3 4 5 6 7 8 9 10 11 12 13 14 15 16 17 18 19 20 21 22 23 24 25 26 27 28 29 30 31 32 33 34 35 36 37 38 39 40 41 42 43 44 45 46 47 48 49 50

000
ASUS43 KGRB 281110
RWRGRB

NORTH-CENTRAL AND NORTHEAST WISCONSIN REGIONAL WEATHER ROUNDUP
NATIONAL WEATHER SERVICE GREEN BAY WI
500 AM CST SAT FEB 28 2015

WIZ005-009-010>012-018-019-281200-
NORTH CENTRAL WISCONSIN

CITY           SKY/WX    TMP DP  RH WIND       PRES   REMARKS
IRONWOOD       CLEAR      1  -4  78 SW7       30.43S WCI -11
MANITOWISH WTR PTCLDY   -16 -21  78 CALM      30.43S
ARBOR VITAE      N/A    -10 -16  75 CALM      30.44S
EAGLE RIVER    PTCLDY   -10 -15  79 CALM      30.44S
LAND O LAKES   PTCLDY   -19 -25  75 S5        30.44R WCI -32
RHINELANDER    PTCLDY    -8 -11  86 CALM      30.46R
PHILLIPS       PTCLDY   -12 -16  82 CALM      30.46S
ANTIGO         PTCLDY    -6  -9  89 CALM      30.48F
TOMAHAWK       PTCLDY   -16 -22  76 CALM      30.48S
MERRILL        PTCLDY   -19 -24  74 CALM      30.50S
$$

WIZ013-073-281200-
NORTHEAST WISCONSIN

CITY           SKY/WX    TMP DP  RH WIND       PRES   REMARKS
IRON MOUNTAIN  CLEAR     -5 -10  79 CALM      30.48R
MARINETTE      CLEAR      1  -6  71 W3        30.57R
OCONTO         CLEAR     -2  -9  73 CALM      30.60R
$$

WIZ017-030-035>037-045-281200-
CENTRAL WISCONSIN

CITY           SKY/WX    TMP DP  RH WIND       PRES   REMARKS
MEDFORD        MOCLDY    -8 -12  84 CALM      30.48R
WAUSAU         PTCLDY    -5  -9  83 S3        30.52R
MOSINEE        MOCLDY    -6  -9  84 S3        30.53S
MARSHFIELD     MOCLDY    -8 -13  78 CALM      30.52S
WISC RAPIDS    MOCLDY    -9 -14  78 CALM      30.58S
STEVENS POINT  MOCLDY   -10 -14  82 S3        30.56S
WAUPACA        PTCLDY    -2  -8  75 CALM      30.60R
SHAWANO        CLEAR      2  -6  68 CALM      30.59R
CLINTONVILLE   CLEAR      0  -8  71 CALM      30.58R
$$

WIZ038-039-048-051-281200-
FOX VALLEY

CITY           SKY/WX    TMP DP  RH WIND       PRES   REMARKS
NWS GREEN BAY  CLEAR      1  -6  72 SW6       30.61R WCI -10
APPLETON       NOT AVBL
OSHKOSH        CLEAR     -1  -9  68 SW3       30.61R
FOND DU LAC    CLEAR     -1  -8  72 SW5       30.62R WCI -11
$$

WIZ022-050-052-281200-
EAST CENTRAL WISCONSIN

CITY           SKY/WX    TMP DP  RH WIND       PRES   REMARKS
STURGEON BAY   CLEAR      3  -8  60 SW8       30.60R WCI -10
MANITOWOC      CLEAR      3  -4  72 W7        30.62R WCI  -9
SHEBOYGAN      CLEAR     -4 -10  75 W7        30.63R WCI -18
$$

LMZ563-521-522-541>543-281200-
LAKESHORE

STATION/POSITION TIME  TEMP    WIND        PRES    VSBY  WAVE
                       AIR SEA DIR/SP/G                  HT/PER
                 (UTC) (F)     (DEG/KT/KT) (MB)    (MI)  (FT/S)
SHEBOYGAN LKSHOR 1100    4     250/  4/  6 1039.5R
KEWAUNEE LKSHORE 1100    4     280/  6/  8 1035.3S
NORTHPORT PIER   1100    6     230/  3/  8 1035.2R
SISTER BAY LKSHO 1100    5     240/  8/ 10   N/A
CHAMBERS ISLAND  1100    4     200/  6/ 11 1035.2R
MENOMINEE LKSHOR 1100    4     210/  6     1036.1R
$$


USA.gov is the U.S. government's official web portal to all federal, state and local government web resources and services.